Location: Newark
(39.6867°N, 100.6772°W)
Time: 11:58:45
(UTC+00:00)

SR - Visible Passes

Search period start: 22 October 2019 00:00
Search period end: 01 November 2019 00:00
Orbit: 574 x 881 km, 66.7° (Epoch: 22 October)

Date Brightness Start Highest point End Pass type
(mag) Time Alt. Az. Time Alt. Az. Time Alt. Az.
22 Oct ? 12:05:52 10° N 12:10:51 27° NE 12:15:49 10° ESE visible
23 Oct ? 11:16:59 10° N 11:20:40 17° NE 11:24:20 10° E visible
24 Oct ? 12:08:14 10° NNW 12:13:55 45° NE 12:19:31 10° SE visible
25 Oct ? 11:19:00 10° N 11:23:55 26° NE 11:28:48 10° ESE visible
26 Oct ? 10:30:11 10° N 10:33:42 16° NE 10:37:13 10° ENE visible
26 Oct ? 12:10:50 10° NNW 12:16:48 77° ENE 12:22:39 10° SSE visible
27 Oct ? 11:21:21 10° NNW 11:27:00 42° NE 11:32:32 10° SE visible
28 Oct ? 10:32:10 10° N 10:36:59 25° NE 10:41:44 10° ESE visible
28 Oct ? 12:13:40 10° NW 12:19:32 61° WSW 12:25:14 10° SSE visible
29 Oct ? 09:44:19 12° NNE 09:46:44 15° NE 09:50:05 10° ENE visible
29 Oct ? 11:23:56 10° NNW 11:29:54 73° ENE 11:35:43 10° SE visible
30 Oct ? 01:53:00 10° SSW 01:55:35 31° S 01:55:35 31° S visible
30 Oct ? 10:36:28 20° N 10:40:04 40° NE 10:45:33 10° ESE visible
30 Oct ? 12:16:50 10° NW 12:22:05 33° WSW 12:27:12 10° S visible
31 Oct ? 01:04:18 10° SSE 01:08:29 28° ESE 01:08:41 27° ESE visible
31 Oct ? 02:45:36 10° WSW 02:48:11 27° W 02:48:11 27° W visible
31 Oct ? 09:49:19 23° NE 09:50:01 24° NE 09:54:42 10° E visible
31 Oct ? 11:28:48 22° NW 11:32:38 64° WSW 11:38:21 10° SSE visible
